Location: Gansheim
(48.7806°N, 10.9525°E)
Time: 06:45:56
(UTC+00:00)

Daily predictions for brighter satellites

Satellite Brightness Start Highest point End
(mag) Time Altitude Azimuth Time Altitude Azimuth Time Altitude Azimuth
ERS-1 Rocket 3.6 20:04:36 10° SE 20:09:22 45° ENE 20:14:09 10° N
Cosmos 1745 Rocket 4.4 20:03:47 10° NNW 20:09:51 65° W 20:15:56 10° S
USA 102 3.7 20:08:45 10° WNW 20:10:56 27° NW 20:17:53 10° NNW
Cosmos 2056 Rocket 3.8 20:06:30 10° S 20:11:42 54° ESE 20:16:59 10° NNE
Cosmos 1140 Rocket 4.0 20:06:49 10° NNW 20:11:57 58° WSW 20:17:00 10° S
Cosmos 2084 3.8 20:10:35 10° S 20:14:04 34° ESE 20:17:35 10° ENE
Cosmos 1455 2.8 20:11:39 10° N 20:15:18 43° ENE 20:18:56 10° SSE
Cosmos 1544 Rocket 3.9 20:12:21 10° N 20:16:36 52° ENE 20:20:49 10° SSE
Cosmos 1953 4.4 20:13:23 10° NW 20:16:38 25° W 20:19:52 10° SW
CZ-4B R/B 1.7 20:14:39 10° N 20:17:29 56° WNW 20:20:19 10° SSW
X-37B 1.7 20:16:49 10° SSW 20:18:58 20° SSE 20:21:07 10° ESE
Cosmos 676 Rocket 4.2 20:14:34 10° NNW 20:19:54 68° ENE 20:25:10 10° SSE
Cosmos 1420 Rocket 4.2 20:15:41 10° S 20:20:44 51° ESE 20:25:52 10° NNE
Cosmos 1980 Rocket 4.3 20:19:41 10° N 20:23:30 18° NE 20:27:18 10° ENE
Resurs 01 Rocket 3.1 20:22:08 10° SSW 20:26:10 34° W 20:30:16 10° NNW
Cosmos 1697 Rocket 4.1 20:22:21 10° NNW 20:27:10 28° NE 20:31:57 10° ESE
IRAS Rocket 4.3 20:22:28 10° NNE 20:28:07 89° WNW 20:33:42 10° SSW
USA 32 4.1 20:26:27 10° S 20:31:38 70° E 20:36:50 10° N
Ariane Rocket 4.1 20:32:24 10° S 20:37:14 42° W 20:42:05 10° NNW
Cosmos 1954 Rocket 4.1 20:33:51 10° NNW 20:39:10 80° WSW 20:44:08 11° SSE
Cosmos 1656 3.9 20:36:18 10° NNW 20:41:43 58° ENE 20:46:33 13° SE
CZ-2C R/B 3.9 20:38:46 10° NNE 20:43:18 52° E 20:47:42 10° S
USA 267 3.6 20:37:17 10° ENE 20:43:28 43° SE 20:49:38 10° SSW
Meteor 1-24 Rocket 3.7 20:38:20 10° SSW 20:43:39 83° WNW 20:49:06 10° N
NOSS 2-1 (C) 4.0 20:40:38 10° NW 20:45:02 90° WSW 20:50:28 14° SE
Cosmos 724 4.4 20:45:12 10° SSW 20:50:50 54° ESE 20:56:29 10° NE
Cosmos 2315 Rocket 4.4 20:45:51 10° SSW 20:52:10 67° WNW 20:58:27 10° N
Helios 1A Rocket 3.2 20:49:35 11° S 20:53:24 67° WSW 20:57:29 10° NNW
NOSS 2-1 (D) 4.0 20:50:56 10° NW 20:55:24 78° SW 21:00:34 15° SSE
Cosmos 1833 Rocket 3.7 20:53:24 14° SSE 20:57:08 28° ESE 21:01:50 10° NE
SL-8 R/B 3.7 20:53:47 10° W 20:58:37 87° S 21:03:28 10° E
ARIANE 5 R/B 2.7 20:55:09 15° SSE 20:58:47 72° ENE 21:03:13 10° N
SPOT 5 3.2 20:58:11 11° S 21:02:26 55° W 21:06:43 10° NNW
ATLAS 5 CENTAUR R/B 4.3 20:52:13 10° NW 21:03:20 35° WSW 21:07:16 10° S
Cosmos 1025 Rocket 4.3 21:00:32 10° SW 21:04:33 40° WNW 21:08:36 10° N
Lacrosse 5 rocket 2.2 21:03:20 10° WNW 21:06:52 34° SW 21:09:19 18° S
Spot 2 Rocket 4.1 21:03:13 10° S 21:08:08 52° W 21:13:09 10° NNW
Cosmos 2074 Rocket 4.0 21:02:45 10° N 21:09:05 87° ENE 21:14:25 15° S
ASTRO F (AKARI) 4.5 21:08:07 19° SSE 21:10:31 89° WSW 21:14:05 10° NNW
SAR-Lupe-4 4.5 21:07:29 10° NNE 21:10:43 31° E 21:12:22 21° SE
RESURS DK-1 2.8 21:08:42 10° NNW 21:12:47 55° ENE 21:15:36 19° SE
Cosmos 1452 Rocket 3.6 21:08:16 10° S 21:13:21 59° ESE 21:18:32 10° NNE
Tiangong 2.7 21:12:44 10° WSW 21:15:02 19° S 21:15:07 19° S
Cosmos 1271 Rocket 3.9 21:11:24 10° NNW 21:15:10 40° W 21:18:36 12° SSW
ATLAS 2AS CENTAUR R/B 3.1 21:09:28 10° NW 21:16:24 56° WSW 21:21:29 17° SSE
Cosmos 2082 Rocket 3.8 21:15:47 15° SE 21:17:56 18° E 21:21:39 10° ENE
USA 234 3.4 21:12:12 10° ESE 21:18:46 78° NNE 21:25:20 10° NW
Cosmos 1607 4.5 21:19:23 10° SW 21:25:34 63° NW 21:31:43 10° NE
SAR-Lupe-1 4.3 21:22:09 10° NNE 21:25:40 53° E 21:27:32 24° SSE
Cosmos 1110 Rocket 4.3 21:23:04 17° S 21:26:51 50° ESE 21:31:58 10° NNE
Nadezhda 1 Rocket 4.0 21:22:55 16° S 21:27:52 69° E 21:33:55 10° NNE
Lacrosse 5 2.4 21:24:31 10° WNW 21:29:24 46° SW 21:32:24 21° SSE
Cosmos 1536 Rocket 3.9 21:26:39 11° SSW 21:30:48 61° WNW 21:35:08 10° N
Cosmos 2154 Rocket 4.0 21:26:15 10° N 21:32:31 89° W 21:37:10 19° S
USA 276 1.8 21:31:50 10° WSW 21:34:49 68° SSE 21:37:48 10° ENE
Cosmos 1610 Rocket 4.5 21:30:57 10° N 21:37:10 90° E 21:41:43 20° S
Cosmos 2228 3.1 21:33:15 10° NNW 21:37:29 69° W 21:40:08 22° S
Terra 2.8 21:33:41 13° SSW 21:37:32 39° W 21:42:01 10° NNW
Cosmos 1606 Rocket 3.5 21:33:26 10° N 21:37:47 78° E 21:40:15 25° SSE
Cosmos 2344 4.3 21:29:35 10° NW 21:38:17 78° NE 21:49:16 13° SE
Cosmos 1825 4.1 21:44:54 15° ESE 21:45:52 16° E 21:48:14 10° NE
COSMOS 2406 3.6 21:49:46 23° SSE 21:53:02 45° ESE 21:58:30 10° NE
Cosmos 2084 Rocket 4.1 21:49:34 10° NNW 21:53:19 45° NE 21:56:07 17° ESE
X-37B 1.6 21:51:24 10° WSW 21:53:00 26° SW 21:53:00 26° SW
ERS-2 4.4 21:54:23 10° ENE 21:55:34 11° E 21:56:00 11° E
Cosmos 2369 4.0 21:51:50 10° NNW 21:57:34 65° ENE 22:01:22 22° SE
SL-16 R/B 4.1 21:55:02 10° N 21:59:32 23° NE 22:04:00 10° E
Cosmos 1726 Rocket 3.5 21:58:39 10° NNW 22:02:59 75° W 22:05:09 29° S
Cosmos 968 Rocket 3.7 21:59:23 10° NNW 22:04:34 66° ENE 22:07:37 25° SE
SL-8 Rocket 4.1 21:58:57 10° N 22:05:13 67° ENE 22:09:01 25° SSE
Cosmos 1980 Rocket 2.4 22:02:54 10° NNW 22:08:37 69° ENE 22:12:13 23° SE
Spot 4 3.9 22:06:05 28° SSE 22:08:37 73° ENE 22:13:25 10° N
Meteor 1-11 4.3 22:05:48 25° S 22:09:05 66° E 22:14:38 10° NNE
Cosmos 1697 Rocket 2.8 22:06:01 10° NNW 22:11:35 64° WSW 22:14:40 27° S
ALOS 2 3.1 22:11:52 26° SE 22:14:02 51° ENE 22:18:19 10° N
Cosmos 1328 4.3 22:12:23 23° SSW 22:14:44 58° WNW 22:18:43 10° N
Cosmos 1892 2.8 22:13:38 37° SSE 22:14:52 59° E 22:18:34 10° NNE
Cosmos 2218 Rocket 4.2 22:08:44 10° N 22:15:09 68° ENE 22:19:02 25° SSE
Cosmos 967 Rocket 4.5 22:13:04 14° SSW 22:18:42 76° ESE 22:25:11 10° NE
Cosmos 192 4.3 22:16:35 28° S 22:19:10 69° ESE 22:24:03 10° NNE
Cosmos 2366 rocket 4.1 22:14:05 10° N 22:20:25 73° E 22:24:12 26° SSE
Cosmos 2341 Rocket 4.0 22:15:25 10° N 22:21:47 81° W 22:25:37 26° S
In-Cosmos 22 Rocket 4.3 22:21:57 28° SSE 22:24:53 60° E 22:30:17 10° NNE
Cosmos 1633 4.1 22:24:46 20° ESE 22:25:21 21° E 22:28:00 10° NE
ASTEX 1 3.9 22:21:40 10° N 22:26:33 55° WNW 22:29:50 20° SSW
USA 267 3.5 22:20:14 10° NE 22:26:47 75° NNW 22:33:18 10° WSW
ADEOS Rocket 3.6 22:23:16 23° SSE 22:28:01 74° ENE 22:35:39 10° NNW
Cosmos 2058 Rocket 3.3 22:29:53 10° NNW 22:34:14 61° W 22:36:09 32° SSW
Cosmos 1892 Rocket 4.2 22:36:30 23° SW 22:39:03 50° WNW 22:43:21 10° N
Cosmos 2322 Rocket 3.8 22:34:39 10° NNW 22:39:38 30° NE 22:44:36 10° ESE
Cosmos 1833 Rocket 3.3 22:35:15 10° SW 22:40:44 54° WNW 22:46:17 10° NNE
SL-8 R/B 3.9 22:36:21 10° W 22:41:00 50° SSW 22:42:54 32° SSE
Cosmos 2278 3.8 22:36:58 10° NNW 22:42:42 75° ENE 22:46:07 25° SE
H-2A R/B 3.4 22:39:21 10° NNE 22:43:34 79° ESE 22:45:11 37° S
Cosmos 1959 Rocket 4.4 22:39:57 10° NNW 22:46:05 78° W 22:49:27 28° S
Cosmos 1408 3.3 22:45:59 29° SW 22:47:14 43° WNW 22:50:34 10° N
GP-B 4.2 22:43:21 10° NNW 22:47:27 37° W 22:49:54 21° SW
Cosmos 1992 Rocket 4.3 22:46:40 32° SSE 22:48:49 51° ESE 22:53:54 10° NNE
Cosmos 807 4.3 22:46:34 10° N 22:50:04 70° E 22:50:35 55° SE
RESURS DK-1 4.3 22:47:36 10° WNW 22:50:21 17° WSW 22:51:26 16° SW
ATLAS 5 CENTAUR R/B 2.5 22:50:40 24° ESE 22:50:40 24° ESE 22:53:52 10° ENE
TIMED 4.4 22:50:55 36° SSW 22:52:38 80° ESE 22:57:01 10° NNE
Aureole 1 Rocket 4.5 22:47:47 10° NNW 22:54:32 75° ENE 23:00:10 22° SSE
Cosmos-2242 3.5 22:50:30 10° N 22:54:39 50° ENE 22:56:21 31° SE
Cosmos 1626 Rocket 3.4 22:54:02 38° S 22:55:41 87° E 23:00:02 10° N
Cosmos 2181 Rocket 4.1 22:52:47 25° SSW 22:56:32 74° W 23:02:46 10° N
Cosmos 1867 3.5 22:54:18 10° NW 22:59:46 75° SW 23:02:32 30° SSE
Cosmos 2082 Rocket 2.2 22:57:35 23° SSW 23:01:18 82° WNW 23:07:03 10° NNE
USA 234 3.8 22:59:13 27° S 23:02:07 41° SW 23:08:15 10° WNW
Okean 1-7 Rocket 3.9 23:06:13 31° SSW 23:08:11 62° WNW 23:12:38 10° N
Cosmos 1503 Rocket 4.3 23:03:26 10° NNW 23:08:45 65° ENE 23:11:49 25° SE
USA 276 2.3 23:07:33 10° W 23:10:32 66° N 23:13:32 10° E
Cosmos 2058 3.9 23:14:21 29° SE 23:15:43 37° E 23:19:36 10° NNE
FALCON 9 DEB 3.8 23:12:48 10° WNW 23:16:00 52° NNE 23:19:13 10° E
Cosmos 1821 Rocket 4.0 23:11:17 10° N 23:17:36 87° W 23:20:59 29° S
Meteor 2-20 4.4 23:15:05 30° S 23:18:20 82° E 23:24:28 10° NNE
Cosmos 2360 Rocket 3.5 23:14:42 10° NNW 23:20:00 37° NE 23:25:14 10° ESE
Cosmos 1825 3.0 23:19:32 29° WSW 23:20:52 41° WNW 23:24:27 10° N
SJ 16-02 2.0 23:18:32 10° NNW 23:22:52 51° ENE 23:25:18 24° SE
BREEZE-M DEB (TANK) 4.1 23:20:12 10° W 23:23:57 82° SSW 23:40:34 10° ESE
Cosmos 1869 4.3 23:21:01 10° NNW 23:24:31 33° W 23:25:34 28° SW
ERS-2 2.3 23:25:45 10° N 23:29:18 62° WNW 23:30:22 40° SW
Cosmos 2084 Rocket 4.5 23:29:14 10° WNW 23:32:32 26° WSW 23:32:33 26° WSW
Nadezhda 3 Rocket 3.9 23:30:29 29° S 23:33:48 88° ESE 23:40:00 10° N
Cosmos 1606 2.6 23:30:20 10° N 23:34:12 87° W 23:35:18 45° S
COSMOS 2406 4.5 23:32:07 10° WSW 23:37:27 37° NW 23:42:48 10° NNE
PSLV R/B 3.8 23:33:47 10° NNE 23:38:35 86° WNW 23:40:41 34° SSW
Cosmos 1932 4.5 23:37:53 21° SW 23:42:11 84° NW 23:48:34 10° NE
Meteor 2-2 Rocket 4.4 23:36:39 10° N 23:42:39 79° ENE 23:46:14 26° SSE
Cosmos 1758 Rocket 3.8 23:41:08 34° SW 23:42:51 61° WNW 23:47:11 10° N
Nimbus 7 Rocket 4.4 23:37:49 10° NNE 23:43:46 85° WNW 23:47:08 28° SSW
SL-16 R/B 2.1 23:38:37 10° NNW 23:44:20 82° WSW 23:47:37 26° SSE
Meteor 2-20 Rocket 4.4 23:41:09 29° S 23:44:30 89° W 23:50:40 10° N
ALOS 2 4.4 23:49:16 17° WSW 23:50:40 19° W 23:53:50 10° NW
Cosmos 2221 3.2 23:47:01 10° N 23:51:15 50° ENE 23:53:34 25° SE
Cosmos 1980 Rocket 3.7 23:47:50 10° NW 23:52:04 22° W 23:53:57 18° SW
